Home   Weather   Wellington   Past weeks

Flag for New Zealand Past Weather in Wellington, New Zealand — Yesterday and Last 2 Weeks

Now
59 °F

Passing clouds.


Feels Like: 57 °F
Forecast: 53 / 61 °F
Wind: 13 mph from North

Location: Wellington Airport

Current Time: Dec 11, 2016 at 1:47:03 am

Latest Report: Dec 11, 2016 at 1:00 am


Visibility: N/A

Pressure: 29.50 "Hg

Humidity: 82%

Dew Point: 54 °F

Location of WellingtonLocation

Past Weather in Wellington — Graph

°F

Wellington Temperature Yesterday

Maximum temperature yesterday: 70 °F (at 10:30 am)
Minimum temperature yesterday: 61 °F (at 1:00 am)
Average temperature yesterday: 63 °F

High & Low Weather Summary for the Past Weeks

 TemperatureHumidityPressure
High75 °F (Dec 9, 3:30 pm)100% (Nov 30, 9:30 am)30.15 "Hg (Nov 30, 9:30 am)
Low46 °F (Dec 3, 5:30 am)36% (Nov 28, 9:30 am)29.21 "Hg (Nov 27, 12:30 pm)
Average60 °F75%29.79 "Hg
* Reported Nov 26 12:00 am — Dec 11 12:30 am, Wellington, Weather by CustomWeather, © 2016

Note: Actual official high and low records may vary slightly from our data, if they occured in-between our weather recording intervals... More about our weather records

Advertising

Wellington Weather History for the Previous 24 Hours

Scroll right to see more
 ConditionsComfort  
Time TempWeatherWind HumidityBarometerVisibility
12:30 am
Sun, Dec 11
61 °FPassing clouds.14 mph77%29.50 "HgN/A
12:00 am61 °FPassing clouds.20 mph77%29.50 "HgN/A
11:30 pm
Sat, Dec 10
61 °FPassing clouds.23 mph83%29.50 "HgN/A
11:00 pm61 °FPassing clouds.20 mph83%29.53 "HgN/A
10:30 pm61 °FPassing clouds.17 mph83%29.53 "HgN/A
10:00 pm61 °FPassing clouds.18 mph83%29.53 "HgN/A
9:30 pm61 °FPassing clouds.17 mph83%29.53 "HgN/A
9:00 pm61 °FPassing clouds.18 mph83%29.53 "HgN/A
8:30 pm61 °FPartly sunny.18 mph88%29.53 "HgN/A
8:00 pm61 °FPartly sunny.21 mph83%29.53 "HgN/A
7:30 pm63 °FPartly sunny.20 mph77%29.53 "HgN/A
7:00 pm63 °FPartly sunny.20 mph83%29.50 "HgN/A
6:30 pm63 °FOvercast.20 mph83%29.53 "HgN/A
6:00 pm63 °FPartly sunny.18 mph83%29.53 "HgN/A
5:30 pm63 °FPartly sunny.25 mph88%29.53 "HgN/A
5:00 pm63 °FLight rain. Partly sunny.28 mph88%29.53 "HgN/A
4:30 pm63 °FLight rain. Mostly cloudy.22 mph94%29.56 "Hg2 mi
4:00 pm63 °FLight rain. Partly sunny.23 mph94%29.56 "Hg4 mi
3:30 pm63 °FDrizzle. Partly sunny.26 mph94%29.56 "Hg2 mi
3:00 pm63 °FLight rain. Partly sunny.24 mph94%29.56 "Hg2 mi
2:30 pm63 °FRain. Mostly cloudy.24 mph100%29.56 "Hg2 mi
2:00 pm64 °FRain. Partly sunny.22 mph94%29.59 "Hg2 mi
1:30 pm64 °FLight rain. Partly sunny.20 mph94%29.59 "Hg4 mi
1:00 pm66 °FPartly sunny.23 mph83%29.59 "HgN/A
12:30 pm66 °FPartly sunny.22 mph78%29.59 "HgN/A
12:00 pm66 °FPartly sunny.20 mph83%29.62 "HgN/A
11:30 am68 °FPartly sunny.26 mph78%29.62 "HgN/A
11:00 am68 °FPartly sunny.24 mph73%29.62 "HgN/A
10:30 am70 °FPartly sunny.24 mph69%29.62 "HgN/A
10:00 am68 °FPartly sunny.24 mph78%29.62 "HgN/A
9:30 am66 °FBroken clouds.26 mph83%29.62 "HgN/A
9:00 am64 °FPartly sunny.23 mph83%29.65 "HgN/A
8:30 am64 °FPartly sunny.23 mph83%29.65 "HgN/A
8:00 am64 °FMostly cloudy.23 mph88%29.65 "HgN/A
7:30 am64 °FPartly sunny.24 mph83%29.65 "HgN/A
7:00 am63 °FLight rain. Partly sunny.24 mph94%29.65 "HgN/A
6:30 am63 °FPartly sunny.25 mph88%29.65 "HgN/A
6:00 am63 °FLight rain. Partly sunny.22 mph88%29.68 "HgN/A
5:30 am63 °FMostly cloudy.25 mph88%29.68 "HgN/A
5:00 am63 °FMostly cloudy.23 mph88%29.68 "HgN/A
4:30 am63 °FMostly cloudy.20 mph94%29.71 "HgN/A
4:00 am63 °FOvercast.21 mph88%29.71 "HgN/A
3:30 am61 °FLight rain. Low clouds.18 mph100%29.71 "Hg5 mi
3:00 am61 °FLight rain. Overcast.16 mph94%29.74 "HgN/A
2:30 am61 °FPassing clouds.18 mph94%29.74 "HgN/A
2:00 am61 °FLight rain. Passing clouds.20 mph94%29.74 "HgN/A
1:30 am61 °FOvercast.20 mph94%29.77 "Hg4 mi
1:00 am61 °FPassing clouds.22 mph94%29.77 "Hg3 mi
Weather by CustomWeather, © 2016

See weather overviewHow to use our weather pages